Vandenberg AFB, CA

3:09 AM PDT on April 25, 2017 (GMT -0700)
Vandenberg Air Force Base

Weather History for KVBG - October, 2013

Change the Weather History Date:

Wednesday, October 2, 2013

  Actual Average Record
Temperature  
Mean Temperature 54 °F -  
Max Temperature 60 °F 66 °F 89 °F (2014)
Min Temperature 48 °F 51 °F 42 °F (2002)
Degree Days  
Heating Degree Days 11    
Growing Degree Days 4 (Base 50)    
Moisture  
Dew Point 50 °F    
Average Humidity 89    
Maximum Humidity 100    
Minimum Humidity 72    
Precipitation  
Precipitation 0.00 in - - ()
Sea Level Pressure  
Sea Level Pressure 29.95 in    
Wind  
Wind Speed 4 mph (West)    
Max Wind Speed 13 mph    
Max Gust Speed -    
Visibility 4 miles    
Events      
Averages and records for this station are not official NWS values.
T = Trace of Precipitation, MM = Missing Value Source: NWS Daily Summary

Daily Weather History Graph

Daily Weather History Graph

Search for Another Location

Airport or City:

Trip Planner

Search our weather history database for the weather conditions in past years. The results will help you decide how hot, cold, wet, or windy it might be!

Date:

Astronomy

Oct. 02, 2013 Rise Set
Actual Time 6:58 AM PDT 6:44 PM PDT
Civil Twilight 6:32 AM PDT 7:09 PM PDT
Nautical Twilight 6:03 AM PDT 7:38 PM PDT
Astronomical Twilight 5:34 AM PDT 8:08 PM PDT
Moon 4:40 AM PDT (10/2) 5:20 PM PDT (10/2)
Length of Visible Light 12h 36m
Length of Day
11h 46m
Waning Crescent, 6% of the Moon is Illuminated
Oct 2
Waning Crescent
Oct 4
New
Oct 11
First Quarter
Oct 18
Full
Oct 26
Last Quarter

Hourly Weather History & Observations

Time (PDT) Temp. Dew Point Humidity Pressure Visibility Wind Dir Wind Speed Gust Speed Precip Events Conditions
12:11 AM 50.0 °F 48.2 °F 94% 29.94 in 2.0 mi East 3.5 mph - N/A   Overcast
12:14 AM 50.0 °F 48.2 °F 94% 29.94 in 1.5 mi Calm Calm - N/A   Overcast
12:18 AM 50.0 °F 48.2 °F 94% 29.95 in 1.0 mi Calm Calm - N/A   Mist
12:29 AM 48.2 °F 46.4 °F 93% 29.94 in 1.2 mi East 4.6 mph - N/A   Overcast
12:34 AM 50.0 °F 46.4 °F 87% 29.94 in 1.8 mi East 3.5 mph - N/A   Overcast
12:36 AM 50.0 °F 46.4 °F 87% 29.94 in 2.5 mi East 3.5 mph - N/A   Overcast
12:43 AM 50.0 °F 46.4 °F 87% 29.94 in 4.0 mi East 4.6 mph - N/A   Overcast
12:55 AM 50.0 °F 48.0 °F 93% 29.91 in 4.0 mi ESE 3.5 mph - N/A   Overcast
1:55 AM 53.1 °F 51.1 °F 93% 29.91 in 5.0 mi Calm Calm - N/A   Overcast
2:02 AM 53.6 °F 51.8 °F 94% 29.94 in 4.0 mi Calm Calm - N/A   Overcast
2:55 AM 53.1 °F 52.0 °F 96% 29.91 in 4.0 mi Calm Calm - N/A   Overcast
3:55 AM 54.0 °F 52.0 °F 93% 29.91 in 5.0 mi SSW 3.5 mph - N/A   Overcast
4:55 AM 54.0 °F 52.0 °F 93% 29.91 in 4.0 mi Calm Calm - N/A   Overcast
5:44 AM 53.6 °F 51.8 °F 94% 29.95 in 2.0 mi SSW 3.5 mph - N/A   Overcast
5:50 AM 53.6 °F 51.8 °F 94% 29.95 in 1.5 mi WSW 3.5 mph - N/A   Overcast
5:55 AM 53.1 °F 52.0 °F 96% 29.93 in 1.5 mi Calm Calm - N/A   Overcast
6:09 AM 53.6 °F 51.8 °F 94% 29.95 in 1.2 mi Calm Calm - N/A   Overcast
6:24 AM 53.6 °F 51.8 °F 94% 29.95 in 1.0 mi Calm Calm - N/A   Overcast
6:55 AM 53.1 °F 51.1 °F 93% 29.94 in 1.2 mi Calm Calm - N/A   Overcast
7:55 AM 52.0 °F 51.1 °F 97% 29.96 in 1.0 mi Calm Calm - N/A   Overcast
8:48 AM 53.6 °F 51.8 °F 94% 30.00 in 0.8 mi SW 3.5 mph - N/A   Overcast
8:55 AM 53.1 °F 52.0 °F 96% 29.98 in 0.8 mi South 3.5 mph - N/A   Overcast
9:17 AM 53.6 °F 53.6 °F 100% 30.00 in 1.0 mi WSW 3.5 mph - N/A   Overcast
9:31 AM 53.6 °F 53.6 °F 100% 30.01 in 1.5 mi WSW 6.9 mph - N/A   Overcast
9:44 AM 53.6 °F 53.6 °F 100% 30.01 in 2.5 mi Variable 4.6 mph - N/A   Overcast
9:55 AM 54.0 °F 53.1 °F 97% 29.99 in 3.0 mi West 5.8 mph - N/A   Overcast
10:42 AM 57.2 °F 53.6 °F 88% 30.01 in 5.0 mi Variable 3.5 mph - N/A   Overcast
10:55 AM 57.0 °F 52.0 °F 83% 29.99 in 5.0 mi West 5.8 mph - N/A   Overcast
11:55 AM 57.9 °F 53.1 °F 84% 29.98 in 6.0 mi WNW 4.6 mph - N/A   Haze
12:55 PM 59.0 °F 52.0 °F 78% 29.96 in 7.0 mi West 6.9 mph - N/A   Mostly Cloudy
1:13 PM 60.8 °F 51.8 °F 72% 29.98 in 7.0 mi West 9.2 mph - N/A   Mostly Cloudy
1:55 PM 60.1 °F 52.0 °F 75% 29.95 in 7.0 mi West 10.4 mph - N/A   Mostly Cloudy
2:38 PM 57.2 °F 51.8 °F 82% 29.96 in 7.0 mi West 10.4 mph - N/A   Mostly Cloudy
2:55 PM 59.0 °F 52.0 °F 78% 29.93 in 7.0 mi West 9.2 mph - N/A   Mostly Cloudy
3:55 PM 60.1 °F 51.1 °F 72% 29.91 in 7.0 mi West 6.9 mph - N/A   Partly Cloudy
4:55 PM 60.1 °F 51.1 °F 72% 29.91 in 7.0 mi West 8.1 mph - N/A   Partly Cloudy
5:30 PM 57.2 °F 51.8 °F 82% 29.94 in 8.0 mi NW 12.7 mph - N/A   Mostly Cloudy
5:55 PM 57.0 °F 51.1 °F 81% 29.92 in 8.0 mi NW 11.5 mph - N/A   Overcast
6:21 PM 55.4 °F 51.8 °F 88% 29.95 in 8.0 mi NW 11.5 mph - N/A   Overcast
6:55 PM 55.0 °F 50.0 °F 83% 29.93 in 8.0 mi NW 9.2 mph - N/A   Mostly Cloudy
7:03 PM 53.6 °F 50.0 °F 88% 29.96 in 9.0 mi NW 9.2 mph - N/A   Scattered Clouds
7:23 PM 53.6 °F 50.0 °F 88% 29.96 in 8.0 mi WNW 3.5 mph - N/A   Mostly Cloudy
7:32 PM 53.6 °F 48.2 °F 82% 29.96 in 8.0 mi WNW 4.6 mph - N/A   Scattered Clouds
7:55 PM 53.1 °F 48.9 °F 86% 29.94 in 8.0 mi WNW 9.2 mph - N/A   Partly Cloudy
8:55 PM 52.0 °F 48.9 °F 89% 29.95 in 8.0 mi NW 4.6 mph - N/A   Clear
9:55 PM 51.1 °F 48.0 °F 89% 29.95 in 7.0 mi NW 5.8 mph - N/A   Clear
10:55 PM 50.0 °F 48.0 °F 93% 29.95 in 6.0 mi NW 3.5 mph - N/A   Clear
11:10 PM 48.2 °F 48.2 °F 100% 29.98 in 5.0 mi WNW 3.5 mph - N/A   Scattered Clouds
11:23 PM 48.2 °F 46.4 °F 93% 29.98 in 5.0 mi Calm Calm - N/A   Mostly Cloudy
11:46 PM 48.2 °F 46.4 °F 93% 29.98 in 5.0 mi Calm Calm - N/A   Partly Cloudy
11:55 PM 50.0 °F 46.9 °F 89% 29.96 in 4.0 mi Calm Calm - N/A   Partly Cloudy